DW4152 Weather Reports


Display with metric or nautical units.
time (UTC)temp
F
wind
direction
speed
MPH
gust
MPH
rain 1hr
in
rain 24hr
in
rain mn
in
humidity
%
barometer
mb
20230204053002 29 48 0.0 0.0 0.00 0.00 0.00 51 1033.1
20230204051601 29 47 0.0 0.0 0.00 0.00 0.00 49 1032.6
20230204050103 30 46 0.0 0.0 0.00 0.00 0.00 47 1032.6
20230204044622 30 47 0.0 0.0 0.00 0.00 0.00 47 1032.1
20230204043050 30 17 0.0 0.0 0.00 0.00 0.00 45 1031.9
20230204041548 31 38 0.0 0.0 0.00 0.00 0.00 45 1031.8
20230204040046 31 30 0.0 0.0 0.00 0.00 0.00 44 1031.7
20230204034544 31 34 0.0 0.0 0.00 0.00 0.00 44 1031.4
20230204033054 31 66 0.0 0.0 0.00 0.00 0.00 42 1031.0
20230204031540 32 5 0.0 0.0 0.00 0.00 0.00 42 1031.2
20230204030049 32 35 0.0 0.0 0.00 0.00 0.00 39 1030.6
20230204024535 32 41 0.0 0.0 0.00 0.00 0.00 40 1030.3
20230204023033 33 31 0.0 0.0 0.00 0.00 0.00 38 1030.2
20230204021530 33 51 0.0 0.0 0.00 0.00 0.00 39 1030.0
20230204020029 33 38 0.0 0.0 0.00 0.00 0.00 40 1030.0
20230204014527 34 34 0.0 0.0 0.00 0.00 0.00 40 1029.7
20230204013025 34 30 0.0 0.0 0.00 0.00 0.00 40 1029.4
20230204011523 34 5 0.0 0.0 0.00 0.00 0.00 40 1029.2
20230204010040 34 5 0.0 0.0 0.00 0.00 0.00 41 1029.1
20230204004527 35 72 0.0 0.0 0.00 0.01 0.00 39 1028.8
20230204003016 35 9 0.0 0.0 0.00 0.01 0.00 41 1028.3
20230204001532 36 15 0.0 0.0 0.00 0.01 0.00 39 1027.9
20230204000011 36 350 0.0 0.0 0.00 0.01 0.00 38 1027.6
20230203234506 37 344 0.0 0.0 0.00 0.01 0.00 40 1027.3
20230203233006 37 39 0.0 0.0 0.00 0.01 0.00 39 1026.9
20230203231605 38 36 0.0 0.0 0.00 0.01 0.00 35 1026.4
20230203230059 38 59 0.0 0.0 0.00 0.01 0.00 42 1026.0
20230203224554 39 20 0.0 0.0 0.00 0.01 0.00 36 1025.5
20230203223051 40 37 0.0 0.0 0.00 0.01 0.00 38 1025.2
20230203221548 41 54 0.0 0.0 0.00 0.01 0.00 37 1024.6
20230203220046 43 28 0.0 0.0 0.00 0.01 0.00 37 1024.1
20230203214547 43 27 0.0 0.0 0.00 0.02 0.00 36 1023.6
20230203213040 44 186 0.0 0.0 0.00 0.02 0.00 33 1023.2
20230203211537 45 228 0.0 0.0 0.00 0.02 0.00 34 1022.7
20230203210038 47 337 0.0 0.0 0.00 0.02 0.00 35 1022.3
20230203204534 47 184 0.0 0.0 0.00 0.03 0.00 31 1021.9
20230203203035 47 23 0.0 0.0 0.00 0.03 0.00 35 1021.7
20230203201532 47 221 0.0 0.0 0.00 0.03 0.00 29 1021.5
20230203200040 48 333 0.0 0.0 0.00 0.03 0.00 35 1021.3
20230203194527 47 340 0.0 0.0 0.00 0.03 0.00 39 1021.2
20230203193027 47 22 0.0 0.0 0.00 0.03 0.00 37 1020.9
20230203191525 47 65 0.0 0.0 0.00 0.03 0.00 39 1020.9
20230203190027 47 326 0.0 0.0 0.00 0.03 0.00 38 1020.7
20230203184523 46 334 0.0 0.0 0.00 0.03 0.00 42 1020.8
20230203183029 46 229 0.0 0.0 0.00 0.03 0.00 42 1020.6
20230203181526 46 18 0.0 0.0 0.00 0.03 0.00 43 1020.6
20230203180026 46 355 0.0 0.0 0.00 0.03 0.00 45 1020.7
20230203174539 45 25 0.0 0.0 0.00 0.03 0.00 43 1020.9
20230203173012 44 331 0.0 0.0 0.00 0.03 0.00 51 1020.7
20230203171523 44 346 0.0 0.0 0.00 0.03 0.00 50 1020.9
20230203170008 43 311 0.0 0.0 0.00 0.03 0.00 51 1021.0
20230203164508 43 309 0.0 0.0 0.00 0.04 0.00 53 1021.1
20230203163005 43 221 0.0 0.0 0.00 0.04 0.00 53 1021.2
20230203161502 43 333 0.0 0.0 0.00 0.04 0.00 57 1020.9
20230203160101 42 292 0.0 0.0 0.00 0.04 0.00 60 1020.4
20230203154558 42 355 0.0 0.0 0.00 0.09 0.00 60 1020.7
20230203153058 42 35 0.0 0.0 0.00 0.09 0.00 60 1020.3
20230203151559 42 54 0.0 0.0 0.00 0.09 0.00 60 1020.2
20230203150110 41 51 0.0 0.0 0.00 0.09 0.00 62 1020.5
20230203144551 41 198 0.0 0.0 0.00 0.15 0.00 64 1019.8
20230203143053 41 310 0.0 0.0 0.00 0.15 0.00 65 1019.2
20230203141553 41 238 0.0 0.0 0.00 0.15 0.00 69 1019.1
20230203140049 41 221 0.0 0.0 0.00 0.15 0.00 64 1019.1
20230203134553 40 323 0.0 0.0 0.00 0.16 0.00 66 1018.7
20230203133038 40 285 0.0 0.0 0.00 0.16 0.00 65 1018.1
20230203131548 40 224 0.0 0.0 0.00 0.16 0.00 66 1017.6
20230203130037 40 223 0.0 0.0 0.00 0.16 0.00 66 1017.4
20230203124537 41 313 0.0 0.0 0.00 0.18 0.00 65 1017.6
20230203123039 41 267 0.0 0.0 0.00 0.18 0.00 64 1017.8
20230203121528 41 244 0.0 0.0 0.00 0.18 0.00 65 1017.3
20230203120027 40 242 0.0 0.0 0.00 0.18 0.00 70 1016.8
20230203114524 40 254 0.0 0.0 0.00 0.20 0.00 71 1016.9
20230203113024 41 247 0.0 0.0 0.00 0.20 0.00 67 1017.1
20230203111533 41 207 0.0 0.0 0.00 0.20 0.00 72 1016.7
20230203110021 41 232 0.0 0.0 0.00 0.20 0.00 68 1016.5
20230203104525 41 238 0.0 0.0 0.00 0.26 0.00 67 1016.5
20230203103019 41 270 0.0 0.0 0.00 0.26 0.00 69 1016.3
20230203101529 41 289 0.0 0.0 0.00 0.26 0.00 68 1016.3
20230203100026 41 211 0.0 0.0 0.00 0.26 0.00 74 1015.8
20230203094518 41 27 0.0 0.0 0.00 0.28 0.00 76 1015.7
20230203093017 41 232 0.0 0.0 0.00 0.28 0.00 77 1015.8
20230203091514 41 217 0.0 0.0 0.00 0.28 0.00 79 1015.8
20230203090022 42 319 0.0 0.0 0.00 0.28 0.00 83 1015.7
20230203084509 42 249 0.0 0.0 0.00 0.31 0.00 82 1016.1
20230203083008 42 217 0.0 0.0 0.00 0.31 0.00 89 1015.9
20230203081505 43 226 0.0 0.0 0.00 0.31 0.00 97 1015.7
20230203080005 43 226 0.0 0.0 0.00 0.31 0.00 98 1015.7
20230203074506 43 226 0.0 0.0 0.00 0.32 0.00 98 1016.0
20230203073105 43 238 0.0 0.0 0.00 0.32 0.00 99 1015.8
20230203071600 43 235 0.0 0.0 0.00 0.32 0.00 99 1016.2
20230203070128 43 235 0.0 0.0 0.00 0.32 0.00 99 1016.0
20230203064559 43 235 0.0 0.0 0.00 0.34 0.00 99 1016.3
20230203063054 44 235 0.0 0.0 0.00 0.34 0.00 99 1016.4
20230203061553 44 235 0.0 0.0 0.00 0.34 0.00 99 1016.8
20230203060054 43 236 0.0 0.0 0.00 0.34 0.00 99 1016.9
20230203054551 44 238 0.0 0.0 0.00 0.35 0.00 99 1017.0